| time (UTC) | temp F | wind direction | speed knots | gust knots | rain 1hr in | rain 24hr in | rain mn in | humidity % | barometer mb |
| 20260510165506 | 56 | 7 | 8.7 | 13.9 | 0.00 | 0.00 | 0.00 | 65 | 1012.1 |
| 20260510165006 | 56 | 29 | 5.2 | 13.0 | 0.00 | 0.00 | 0.00 | 66 | 1012.1 |
| 20260510164505 | 56 | 353 | 7.8 | 13.0 | 0.00 | 0.00 | 0.00 | 65 | 1012.2 |
| 20260510162006 | 57 | 4 | 7.8 | 13.9 | 0.00 | 0.00 | 0.00 | 65 | 1012.5 |
| 20260510161506 | 57 | 0 | 6.1 | 11.3 | 0.00 | 0.00 | 0.00 | 65 | 1012.6 |
| 20260510161006 | 57 | 15 | 4.3 | 13.0 | 0.00 | 0.00 | 0.00 | 64 | 1012.6 |
| 20260510152006 | 59 | 40 | 5.2 | 12.2 | 0.00 | 0.00 | 0.00 | 63 | 1012.7 |
| 20260510151505 | 59 | 20 | 7.0 | 13.9 | 0.00 | 0.00 | 0.00 | 62 | 1012.7 |
| 20260510151005 | 59 | 0 | 9.6 | 17.4 | 0.00 | 0.00 | 0.00 | 61 | 1012.7 |
| 20260510150006 | 59 | 14 | 4.3 | 14.8 | 0.00 | 0.00 | 0.00 | 61 | 1013.0 |
| 20260510145506 | 60 | 22 | 5.2 | 14.8 | 0.00 | 0.00 | 0.00 | 60 | 1013.1 |
| 20260510145006 | 60 | 35 | 5.2 | 12.2 | 0.00 | 0.00 | 0.00 | 59 | 1013.0 |
| 20260510144505 | 61 | 58 | 6.1 | 10.4 | 0.00 | 0.00 | 0.00 | 58 | 1013.1 |
| 20260510143505 | 61 | 8 | 5.2 | 10.4 | 0.00 | 0.00 | 0.00 | 58 | 1013.2 |
| 20260510142505 | 61 | 21 | 5.2 | 13.0 | 0.00 | 0.00 | 0.00 | 58 | 1013.2 |
| 20260510142005 | 61 | 38 | 5.2 | 11.3 | 0.00 | 0.00 | 0.00 | 56 | 1013.2 |
| 20260510134505 | 61 | 20 | 6.1 | 13.0 | 0.00 | 0.00 | 0.00 | 55 | 1013.6 |
| 20260510124005 | 61 | 17 | 4.3 | 8.7 | 0.00 | 0.00 | 0.00 | 56 | 1014.2 |
| 20260510123505 | 60 | 45 | 5.2 | 12.2 | 0.00 | 0.00 | 0.00 | 58 | 1014.2 |
| 20260510123006 | 61 | 17 | 6.1 | 13.9 | 0.00 | 0.00 | 0.00 | 58 | 1014.2 |
| 20260510122505 | 61 | 22 | 4.3 | 8.7 | 0.00 | 0.00 | 0.00 | 57 | 1014.3 |
| 20260510120004 | 60 | 29 | 5.2 | 10.4 | 0.00 | 0.00 | 0.00 | 57 | 1014.5 |
| 20260510112005 | 60 | 27 | 3.5 | 10.4 | 0.00 | 0.00 | 0.00 | 58 | 1014.8 |
| 20260510111504 | 60 | 24 | 5.2 | 11.3 | 0.00 | 0.00 | 0.00 | 59 | 1014.9 |
| 20260510111004 | 60 | 6 | 6.1 | 13.0 | 0.00 | 0.00 | 0.00 | 61 | 1015.0 |
| 20260510110005 | 59 | 2 | 7.0 | 11.3 | 0.00 | 0.00 | 0.00 | 60 | 1015.1 |
| 20260510105504 | 60 | 15 | 5.2 | 11.3 | 0.00 | 0.00 | 0.00 | 60 | 1015.2 |
| 20260510105007 | 60 | 31 | 5.2 | 10.4 | 0.00 | 0.00 | 0.00 | 60 | 1015.2 |
| 20260510104506 | 59 | 359 | 5.2 | 10.4 | 0.00 | 0.00 | 0.00 | 64 | 1015.3 |
| 20260510104005 | 59 | 357 | 7.0 | 13.0 | 0.00 | 0.00 | 0.00 | 67 | 1015.3 |
| 20260510103005 | 59 | 10 | 5.2 | 10.4 | 0.00 | 0.00 | 0.00 | 62 | 1015.3 |
| 20260510102504 | 59 | 3 | 5.2 | 8.7 | 0.00 | 0.00 | 0.00 | 68 | 1015.3 |
| 20260510102004 | 59 | 6 | 6.1 | 12.2 | 0.00 | 0.00 | 0.00 | 68 | 1015.4 |
| 20260510095004 | 58 | 9 | 6.1 | 10.4 | 0.00 | 0.00 | 0.00 | 69 | 1015.6 |
| 20260510094504 | 58 | 358 | 5.2 | 10.4 | 0.00 | 0.00 | 0.00 | 70 | 1015.7 |
| 20260510092004 | 57 | 0 | 4.3 | 13.9 | 0.00 | 0.00 | 0.00 | 72 | 1015.8 |
| 20260510091004 | 58 | 350 | 7.0 | 11.3 | 0.00 | 0.00 | 0.00 | 70 | 1015.8 |
| 20260510085504 | 57 | 3 | 5.2 | 12.2 | 0.00 | 0.00 | 0.00 | 72 | 1015.8 |
| 20260510085005 | 58 | 6 | 6.1 | 10.4 | 0.00 | 0.00 | 0.00 | 72 | 1015.8 |
| 20260510083508 | 58 | 358 | 5.2 | 11.3 | 0.00 | 0.00 | 0.00 | 69 | 1016.0 |
| 20260510083008 | 57 | 318 | 4.3 | 8.7 | 0.00 | 0.00 | 0.00 | 67 | 1016.1 |
| 20260510082508 | 57 | 5 | 6.1 | 11.3 | 0.00 | 0.00 | 0.00 | 66 | 1016.1 |
| 20260510081009 | 57 | 347 | 3.5 | 10.4 | 0.00 | 0.00 | 0.00 | 67 | 1016.2 |
| 20260510073508 | 56 | 73 | 2.6 | 8.7 | 0.00 | 0.00 | 0.00 | 66 | 1016.3 |
| 20260510073008 | 56 | 6 | 3.5 | 8.7 | 0.00 | 0.00 | 0.00 | 66 | 1016.3 |
| 20260510071507 | 56 | 343 | 4.3 | 8.7 | 0.00 | 0.00 | 0.00 | 69 | 1016.3 |
| 20260510071008 | 55 | 36 | 4.3 | 8.7 | 0.00 | 0.00 | 0.00 | 71 | 1016.3 |
| 20260510070008 | 55 | 353 | 4.3 | 10.4 | 0.00 | 0.00 | 0.00 | 73 | 1016.2 |
| 20260510065508 | 54 | 5 | 3.5 | 10.4 | 0.00 | 0.00 | 0.00 | 74 | 1016.2 |
| 20260510063008 | 54 | 0 | 5.2 | 10.4 | 0.00 | 0.00 | 0.00 | 76 | 1016.3 |
| 20260510062507 | 53 | 355 | 4.3 | 10.4 | 0.00 | 0.00 | 0.00 | 76 | 1016.3 |
| 20260510062008 | 53 | 11 | 5.2 | 10.4 | 0.00 | 0.00 | 0.00 | 77 | 1016.3 |
| 20260510061509 | 53 | 17 | 4.3 | 8.7 | 0.00 | 0.00 | 0.00 | 78 | 1016.3 |
| 20260510061008 | 53 | 3 | 3.5 | 10.4 | 0.00 | 0.00 | 0.00 | 77 | 1016.3 |
| 20260510054008 | 51 | 4 | 2.6 | 7.0 | 0.00 | 0.00 | 0.00 | 79 | 1016.3 |
| 20260510053507 | 51 | 4 | 2.6 | 6.1 | 0.00 | 0.00 | 0.00 | 79 | 1016.3 |
| 20260510053010 | 51 | 2 | 5.2 | 8.7 | 0.00 | 0.00 | 0.00 | 79 | 1016.3 |
| 20260510052508 | 51 | 0 | 3.5 | 7.0 | 0.00 | 0.00 | 0.00 | 80 | 1016.3 |
| 20260510052008 | 51 | 0 | 4.3 | 7.0 | 0.00 | 0.00 | 0.00 | 80 | 1016.3 |
| 20260510051507 | 50 | 355 | 5.2 | 7.8 | 0.00 | 0.00 | 0.00 | 79 | 1016.3 |
| 20260510051009 | 50 | 354 | 4.3 | 7.8 | 0.00 | 0.00 | 0.00 | 79 | 1016.3 |
| 20260510045008 | 50 | 3 | 2.6 | 7.0 | 0.00 | 0.00 | 0.00 | 79 | 1016.3 |
| 20260510044508 | 50 | 3 | 2.6 | 5.2 | 0.00 | 0.00 | 0.00 | 79 | 1016.3 |
| 20260510043008 | 50 | 3 | 2.6 | 6.1 | 0.00 | 0.00 | 0.00 | 79 | 1016.2 |
| 20260510042508 | 50 | 3 | 2.6 | 7.0 | 0.00 | 0.00 | 0.00 | 79 | 1016.2 |
| 20260510042008 | 50 | 9 | 4.3 | 7.8 | 0.00 | 0.00 | 0.00 | 79 | 1016.1 |
| 20260510035507 | 50 | 348 | 2.6 | 6.1 | 0.00 | 0.00 | 0.00 | 80 | 1016.1 |
| 20260510035008 | 50 | 355 | 4.3 | 8.7 | 0.00 | 0.00 | 0.00 | 80 | 1016.2 |
| 20260510034508 | 50 | 333 | 3.5 | 6.1 | 0.00 | 0.00 | 0.00 | 81 | 1016.3 |
| 20260510034007 | 50 | 0 | 3.5 | 7.0 | 0.00 | 0.00 | 0.00 | 81 | 1016.3 |
| 20260510033008 | 50 | 0 | 4.3 | 8.7 | 0.00 | 0.00 | 0.00 | 82 | 1016.2 |
| 20260510032507 | 50 | 355 | 4.3 | 8.7 | 0.00 | 0.00 | 0.00 | 83 | 1016.3 |
| 20260510032008 | 50 | 350 | 4.3 | 8.7 | 0.00 | 0.00 | 0.00 | 83 | 1016.3 |
| 20260510031508 | 50 | 14 | 3.5 | 7.0 | 0.00 | 0.00 | 0.00 | 83 | 1016.3 |
| 20260510025007 | 50 | 12 | 3.5 | 5.2 | 0.00 | 0.00 | 0.00 | 84 | 1016.5 |
| 20260510024507 | 50 | 17 | 4.3 | 6.1 | 0.00 | 0.00 | 0.00 | 84 | 1016.6 |
| 20260510024008 | 51 | 5 | 3.5 | 7.0 | 0.00 | 0.00 | 0.00 | 84 | 1016.6 |
| 20260510023507 | 51 | 350 | 4.3 | 6.1 | 0.00 | 0.00 | 0.00 | 84 | 1016.7 |
| 20260510023007 | 51 | 349 | 4.3 | 6.1 | 0.00 | 0.00 | 0.00 | 84 | 1016.6 |
| 20260510022507 | 51 | 346 | 4.3 | 7.0 | 0.00 | 0.00 | 0.00 | 84 | 1016.5 |
| 20260510022007 | 51 | 355 | 2.6 | 6.1 | 0.00 | 0.00 | 0.00 | 84 | 1016.4 |
| 20260510021507 | 51 | 355 | 4.3 | 5.2 | 0.00 | 0.00 | 0.00 | 83 | 1016.4 |
| 20260510021008 | 51 | 355 | 2.6 | 5.2 | 0.00 | 0.00 | 0.00 | 83 | 1016.4 |
| 20260510015007 | 51 | 355 | 4.3 | 7.0 | 0.00 | 0.00 | 0.00 | 82 | 1016.5 |
| 20260510014507 | 51 | 355 | 4.3 | 6.1 | 0.00 | 0.00 | 0.00 | 82 | 1016.6 |
| 20260510013507 | 51 | 11 | 2.6 | 4.3 | 0.00 | 0.00 | 0.00 | 81 | 1016.7 |
| 20260510013007 | 52 | 1 | 4.3 | 7.8 | 0.00 | 0.00 | 0.00 | 81 | 1016.6 |
| 20260510012507 | 52 | 3 | 5.2 | 7.8 | 0.00 | 0.00 | 0.00 | 81 | 1016.5 |
| 20260510005007 | 52 | 12 | 3.5 | 7.8 | 0.00 | 0.00 | 0.00 | 80 | 1016.8 |
| 20260510004507 | 52 | 358 | 2.6 | 5.2 | 0.00 | 0.00 | 0.00 | 80 | 1016.8 |
| 20260510004008 | 52 | 344 | 2.6 | 5.2 | 0.00 | 0.00 | 0.00 | 80 | 1016.8 |
| 20260510000007 | 52 | 3 | 4.3 | 7.0 | 0.00 | 0.00 | 0.00 | 80 | 1016.8 |
| 20260509235506 | 52 | 10 | 2.6 | 6.1 | 0.00 | 0.00 | 0.00 | 80 | 1016.9 |
| 20260509235007 | 52 | 11 | 0.0 | 2.6 | 0.00 | 0.00 | 0.00 | 80 | 1017.0 |
| 20260509234506 | 52 | 11 | 1.7 | 2.6 | 0.00 | 0.00 | 0.00 | 80 | 1017.0 |
| 20260509234007 | 52 | 11 | 1.7 | 4.3 | 0.00 | 0.00 | 0.00 | 80 | 1017.1 |
| 20260509233507 | 52 | 11 | 1.7 | 5.2 | 0.00 | 0.00 | 0.00 | 80 | 1017.0 |
| 20260509233006 | 52 | 11 | 2.6 | 6.1 | 0.00 | 0.00 | 0.00 | 80 | 1016.9 |
| 20260509232506 | 52 | 12 | 2.6 | 6.1 | 0.00 | 0.00 | 0.00 | 79 | 1016.9 |
| 20260509224506 | 53 | 12 | 2.6 | 5.2 | 0.00 | 0.00 | 0.00 | 79 | 1017.1 |
| 20260509224007 | 53 | 13 | 1.7 | 4.3 | 0.00 | 0.00 | 0.00 | 79 | 1017.1 |
| 20260509222506 | 53 | 11 | 1.7 | 6.1 | 0.00 | 0.00 | 0.00 | 79 | 1017.2 |
| 20260509210007 | 55 | 4 | 0.9 | 2.6 | 0.00 | 0.00 | 0.00 | 70 | 1017.3 |
| 20260509205506 | 55 | 3 | 1.7 | 4.3 | 0.00 | 0.00 | 0.00 | 71 | 1017.1 |
| 20260509204006 | 56 | 3 | 1.7 | 2.6 | 0.00 | 0.00 | 0.00 | 71 | 1017.0 |
| 20260509203506 | 56 | 9 | 1.7 | 2.6 | 0.00 | 0.00 | 0.00 | 71 | 1017.0 |
| 20260509203007 | 56 | 9 | 1.7 | 2.6 | 0.00 | 0.00 | 0.00 | 70 | 1016.9 |
| 20260509202506 | 56 | 9 | 0.0 | 2.6 | 0.00 | 0.00 | 0.00 | 70 | 1016.9 |
| 20260509202006 | 57 | 9 | 0.9 | 2.6 | 0.00 | 0.00 | 0.00 | 69 | 1017.0 |
| 20260509201506 | 57 | 9 | 0.0 | 1.7 | 0.00 | 0.00 | 0.00 | 68 | 1017.1 |
| 20260509194006 | 58 | 9 | 0.9 | 2.6 | 0.00 | 0.00 | 0.00 | 67 | 1016.9 |
| 20260509193506 | 58 | 9 | 1.7 | 4.3 | 0.00 | 0.00 | 0.00 | 66 | 1016.9 |
| 20260509193006 | 59 | 9 | 1.7 | 2.6 | 0.00 | 0.00 | 0.00 | 66 | 1016.8 |
| 20260509192506 | 59 | 9 | 1.7 | 4.3 | 0.00 | 0.00 | 0.00 | 65 | 1016.8 |
| 20260509192006 | 59 | 9 | 1.7 | 4.3 | 0.00 | 0.00 | 0.00 | 64 | 1016.8 |
| 20260509191506 | 59 | 9 | 1.7 | 2.6 | 0.00 | 0.00 | 0.00 | 63 | 1016.8 |
| 20260509191006 | 60 | 9 | 1.7 | 5.2 | 0.00 | 0.00 | 0.00 | 63 | 1016.8 |
| 20260509190006 | 60 | 12 | 3.5 | 5.2 | 0.00 | 0.00 | 0.00 | 61 | 1016.8 |
| 20260509185505 | 60 | 329 | 2.6 | 5.2 | 0.00 | 0.00 | 0.00 | 61 | 1016.7 |
| 20260509185009 | 61 | 0 | 2.6 | 6.1 | 0.00 | 0.00 | 0.00 | 61 | 1016.7 |
| 20260509184507 | 61 | 14 | 3.5 | 5.2 | 0.00 | 0.00 | 0.00 | 60 | 1016.6 |
| 20260509184006 | 61 | 327 | 2.6 | 7.0 | 0.00 | 0.00 | 0.00 | 59 | 1016.6 |
| 20260509183506 | 61 | 1 | 2.6 | 6.1 | 0.00 | 0.00 | 0.00 | 58 | 1016.6 |
| 20260509183006 | 61 | 325 | 3.5 | 6.1 | 0.00 | 0.00 | 0.00 | 58 | 1016.6 |
| 20260509182506 | 61 | 4 | 2.6 | 6.1 | 0.00 | 0.00 | 0.00 | 57 | 1016.5 |
| 20260509181006 | 62 | 337 | 2.6 | 8.7 | 0.00 | 0.00 | 0.00 | 56 | 1016.3 |
| 20260509180006 | 63 | 355 | 2.6 | 8.7 | 0.00 | 0.00 | 0.00 | 54 | 1016.3 |
| 20260509174505 | 63 | 347 | 4.3 | 7.0 | 0.00 | 0.00 | 0.00 | 52 | 1016.4 |
| 20260509174006 | 63 | 355 | 4.3 | 10.4 | 0.00 | 0.00 | 0.00 | 51 | 1016.5 |
| 20260509173506 | 64 | 357 | 5.2 | 8.7 | 0.00 | 0.00 | 0.00 | 50 | 1016.5 |
| 20260509173006 | 64 | 350 | 4.3 | 7.0 | 0.00 | 0.00 | 0.00 | 49 | 1016.6 |
| 20260509172506 | 65 | 357 | 4.3 | 7.0 | 0.00 | 0.00 | 0.00 | 48 | 1016.6 |
| 20260509172006 | 65 | 0 | 1.7 | 6.1 | 0.00 | 0.00 | 0.00 | 48 | 1016.7 |
| 20260509171505 | 65 | 0 | 1.7 | 5.2 | 0.00 | 0.00 | 0.00 | 46 | 1016.7 |
| 20260509171006 | 65 | 355 | 2.6 | 6.1 | 0.00 | 0.00 | 0.00 | 47 | 1016.6 |